Wind_Speed
21 21 21 22 23 25 27 27 28 29 30 31 32 32 32 33 35 37 38 39 39 39 39 39 40 41 42 42 42 43 43 43 43 43 44 44 44 45 45 45 45 45 46 47
21 21 20 21 22 24 25 27 27 28 29 31 32 32 31 32 34 35 37 38 38 38 38 39 39 40 41 42 43 43 42 42 43 43 44 44 44 44 45 45 45 46 46 47
22 21 21 22 22 24 24 26 27 28 29 30 31 32 31 31 33 35 36 37 38 38 38 38 38 39 40 41 42 42 42 42 42 43 44 44 45 44 45 45 45 46 46 47
22 21 22 22 23 24 24 25 27 29 29 29 30 32 29 30 31 33 35 37 37 38 38 38 39 39 40 41 41 42 42 43 43 44 44 43 44 44 44 45 46 46 47 48
22 22 22 22 23 24 24 25 27 28 29 30 29 31 29 28 28 30 33 35 36 36 37 37 38 39 40 40 41 42 42 43 43 43 43 43 42 43 44 45 46 47 48 49
22 22 22 22 23 23 24 25 26 27 28 30 29 30 29 27 27 28 31 33 33 34 35 36 37 38 39 40 41 41 42 42 43 44 44 43 44 44 44 45 46 47 48 49
22 22 22 23 23 24 24 24 25 26 28 28 27 29 29 27 27 28 29 30 31 32 33 34 35 36 37 38 39 40 42 42 42 44 44 44 45 45 45 45 46 47 47 48
22 22 22 23 24 24 24 24 24 26 28 27 27 28 27 26 26 27 28 29 29 30 31 32 33 35 36 37 37 39 40 41 42 43 44 45 44 44 44 45 46 46 46 46
22 22 22 22 22 23 23 22 23 26 27 27 27 26 24 24 24 25 26 28 29 30 30 31 32 33 34 35 36 37 38 39 41 42 43 44 44 43 43 43 44 44 45 46
22 23 22 22 22 22 23 23 23 24 26 26 25 24 22 21 23 24 25 26 27 28 30 30 31 32 32 33 35 36 38 38 39 40 42 43 43 43 43 43 43 44 44 44
23 23 22 22 21 22 23 23 23 24 24 25 25 22 22 22 22 23 24 25 26 27 28 29 30 31 32 33 33 35 36 37 38 39 40 41 41 42 42 42 42 42 42 43
23 23 22 22 22 22 22 22 23 24 24 24 25 23 22 22 22 23 25 26 26 27 27 28 30 30 31 32 33 34 34 35 36 36 38 39 39 40 40 40 40 40 41 42
21 21 21 21 21 21 21 21 22 23 24 24 25 23 22 23 23 24 25 25 26 27 28 28 29 30 30 31 32 32 32 33 33 34 34 35 36 37 37 38 39 39 39 39
21 21 21 21 21 21 21 21 22 23 24 24 24 23 22 23 24 24 24 25 26 26 27 28 29 30 30 30 30 30 30 31 31 31 32 32 34 35 35 36 37 37 37 38
21 22 21 21 22 22 21 21 22 23 24 24 23 23 22 22 24 25 25 25 26 26 26 26 27 28 28 28 28 28 29 29 29 30 30 31 33 34 35 35 36 35 35 35
22 23 23 22 23 22 22 22 23 23 24 24 25 24 23 23 24 25 26 26 27 26 26 26 26 26 27 27 27 27 27 27 28 29 31 31 33 33 33 34 33 33 33 33
23 23 24 23 22 23 22 21 22 23 24 25 25 25 24 24 25 26 26 26 26 26 25 25 25 26 26 25 25 26 26 27 28 28 29 30 31 31 31 32 32 32 32 32
24 24 25 24 23 23 21 21 22 23 23 24 25 24 25 25 25 25 25 26 26 26 25 25 25 25 25 25 26 26 26 26 27 28 28 29 29 29 29 30 30 30 31 31
25 25 25 25 25 24 21 21 22 23 23 23 24 25 25 25 25 25 25 25 25 25 25 25 24 24 25 25 26 26 26 26 26 27 27 28 28 28 28 28 29 29 30 30
26 26 27 27 27 26 22 22 23 24 24 24 25 25 26 26 25 24 24 25 25 25 25 25 25 25 25 26 26 26 26 26 27 26 26 27 28 28 27 27 28 28 28 28
27 27 27 27 28 27 25 24 25 25 25 25 26 25 25 25 25 24 25 25 26 25 26 26 26 26 26 26 26 26 26 27 26 26 26 25 25 25 25 26 26 26 26 26
26 27 26 27 27 26 25 26 26 26 26 26 26 26 26 25 25 25 26 26 26 26 26 26 26 26 26 26 26 26 26 26 25 25 24 23 23 23 23 23 23 24 25 25
26 26 26 26 26 26 26 27 26 26 26 26 26 27 26 26 26 26 26 26 26 26 26 26 26 26 25 25 25 25 25 24 23 23 22 22 22 22 21 21 21 22 22 23
26 27 27 27 26 26 27 26 26 26 26 26 26 26 26 26 26 26 26 25 25 25 25 25 25 24 24 24 23 23 22 22 22 21 21 20 20 20 20 20 20 21 21 21
27 27 27 28 27 27 27 26 26 26 26 26 26 26 26 26 25 25 25 25 24 23 24 24 23 23 23 22 21 21 21 20 20 20 19 19 19 19 19 18 18 19 19 20
27 28 29 28 27 27 26 25 25 25 25 25 26 26 26 26 25 25 25 24 23 22 22 22 22 21 21 21 20 20 20 19 19 19 19 18 18 18 18 18 18 17 18 18
Wind_Direction
278 275 272 270 267 266 266 265 264 263 262 262 261 260 259 258 257 256 255 255 256 256 257 256 257 256 255 256 256 256 258 258 258 258 258 259 260 260 260 259 259 260 259 259
281 276 272 272 271 269 268 266 266 265 264 264 262 261 260 259 260 258 257 256 256 257 257 257 257 257 256 256 257 257 258 258 258 259 260 260 260 260 260 261 261 261 261 260
281 278 275 273 273 272 270 270 268 268 266 266 266 264 262 261 262 259 257 257 258 259 259 258 258 257 257 257 258 257 257 257 258 259 260 260 260 260 261 261 262 262 262 262
282 280 278 276 275 276 274 272 271 269 268 268 269 268 264 264 263 261 258 258 260 261 260 259 258 257 257 258 258 258 258 258 258 260 261 261 261 260 261 261 261 262 262 262
285 282 280 278 277 277 277 275 274 272 270 269 269 270 267 266 266 264 262 261 261 262 261 259 258 258 258 258 259 259 259 260 260 260 260 260 260 261 261 262 262 262 262 262
286 283 281 279 278 278 279 278 277 274 273 271 270 271 270 268 268 267 265 263 263 264 262 260 259 259 259 259 259 259 261 262 261 260 260 260 262 263 264 264 264 263 262 262
287 285 284 282 281 279 278 279 279 277 274 274 274 273 273 272 270 269 268 266 265 265 263 262 262 261 261 262 261 262 263 263 263 262 261 261 263 265 266 266 265 264 263 262
289 287 285 284 281 280 279 279 279 279 280 279 276 275 275 274 272 270 269 268 267 267 266 265 264 263 263 263 263 265 265 265 265 265 264 263 265 266 267 267 266 265 264 263
290 289 288 285 283 281 280 279 279 279 280 281 280 279 276 274 272 272 271 269 269 267 267 268 267 265 265 264 265 266 266 265 265 265 266 265 265 266 267 267 266 266 264 263
290 288 288 286 282 280 278 277 277 278 281 283 283 282 281 277 277 275 275 273 271 269 269 268 268 268 267 266 266 267 266 267 268 267 265 264 264 265 265 265 265 266 265 263
289 288 286 283 281 279 276 274 274 276 279 282 284 285 284 281 280 278 276 275 273 274 274 270 270 270 271 271 270 269 269 269 269 268 266 264 265 265 264 264 265 264 264 264
289 287 286 284 284 283 280 275 273 275 277 279 281 285 285 283 281 279 277 276 277 277 276 275 272 272 272 272 271 271 271 271 271 269 267 265 266 267 266 264 263 264 263 262
290 287 286 286 285 285 283 278 274 274 276 278 281 284 284 282 281 281 280 280 280 278 277 277 276 275 274 274 273 272 273 272 271 269 268 267 266 266 265 264 263 264 263 262
289 287 285 286 286 284 281 279 275 275 278 281 283 283 281 282 283 284 284 284 284 282 280 279 277 275 276 276 274 273 275 274 272 269 268 268 267 266 265 265 264 263 262 261
286 286 286 284 284 283 280 278 275 276 280 283 285 283 282 283 284 283 284 286 287 285 283 281 279 278 278 277 275 275 276 275 272 269 270 270 269 267 266 264 263 263 262 262
284 285 285 284 283 283 280 278 278 277 279 282 283 282 283 282 282 283 285 286 287 287 284 282 280 279 279 278 277 277 277 276 275 272 270 270 270 267 265 264 262 262 262 262
283 284 284 285 283 282 281 282 281 280 280 280 281 283 282 281 281 284 285 286 287 287 285 283 282 282 281 279 279 280 279 278 277 276 273 271 271 269 266 264 262 261 261 262
282 284 285 284 283 281 286 284 282 280 279 278 280 282 281 280 282 283 283 284 285 286 286 284 283 282 282 281 280 280 280 279 277 276 275 273 271 269 266 264 263 261 261 262
281 283 285 285 283 283 284 285 284 281 279 279 280 281 281 281 282 283 284 283 284 286 286 285 283 283 283 283 282 281 281 280 280 279 276 273 272 271 268 264 262 263 263 262
281 281 283 283 282 282 284 283 282 280 279 279 280 281 281 282 282 283 283 284 283 283 285 285 286 285 285 286 283 282 282 282 282 280 278 275 272 271 269 265 264 263 264 263
281 282 283 284 283 283 284 283 282 281 283 282 281 281 281 281 283 284 283 284 283 283 284 285 286 286 286 285 284 283 282 282 281 279 277 276 273 270 269 267 266 265 266 266
281 282 283 282 282 284 283 281 281 282 282 283 283 282 281 282 283 284 285 285 285 285 285 285 285 286 286 285 284 285 284 283 281 280 278 275 272 271 270 269 269 268 268 267
280 282 283 283 283 282 280 281 282 281 282 283 284 284 283 282 283 286 286 285 284 286 287 287 286 285 285 285 285 285 285 283 282 281 279 276 273 274 272 271 271 271 270 269
282 283 283 283 283 282 281 281 280 281 282 282 282 283 283 284 285 286 287 287 286 286 286 287 287 286 285 286 284 283 284 283 281 280 277 275 273 274 274 274 272 271 271 270
282 282 282 283 283 282 280 280 279 279 281 281 283 284 285 285 286 287 287 287 286 286 286 286 287 287 287 286 284 284 284 281 279 278 275 272 271 272 272 273 273 273 273 272
284 283 283 283 283 282 281 279 278 278 281 282 283 285 285 286 286 286 286 285 284 286 287 287 287 287 287 286 284 284 284 282 279 276 274 271 270 271 271 272 273 275 276 275
Height
5679 5679 5678 5678 5678 5678 5677 5677 5678 5678 5678 5677 5678 5680 5682 5682 5682 5684 5685 5686 5688 5690 5691 5692 5694 5695 5696 5698 5699 5700 5701 5703 5704 5705 5706 5707 5708 5708 5709 5709 5709 5710 5710 5711
5674 5673 5673 5672 5671 5671 5670 5670 5670 5671 5670 5670 5670 5672 5673 5674 5674 5674 5675 5677 5679 5680 5681 5683 5684 5685 5686 5687 5688 5690 5691 5692 5693 5694 5695 5696 5696 5697 5697 5698 5698 5698 5699 5699
5668 5668 5666 5666 5665 5664 5664 5663 5663 5663 5663 5662 5662 5663 5666 5666 5665 5666 5666 5667 5669 5670 5671 5673 5674 5675 5676 5677 5678 5679 5680 5681 5682 5683 5683 5684 5685 5685 5686 5686 5686 5687 5687 5688
5662 5662 5660 5659 5659 5657 5657 5657 5656 5655 5654 5654 5655 5654 5658 5657 5657 5657 5657 5658 5659 5660 5661 5662 5664 5664 5665 5666 5667 5668 5669 5670 5671 5672 5672 5673 5673 5674 5674 5675 5675 5675 5676 5676
5656 5655 5654 5653 5653 5651 5650 5649 5649 5647 5647 5647 5647 5645 5649 5649 5649 5649 5648 5648 5649 5650 5651 5652 5653 5654 5655 5656 5657 5658 5658 5659 5660 5660 5661 5661 5662 5662 5662 5663 5663 5663 5664 5664
5650 5649 5648 5647 5646 5644 5643 5642 5641 5640 5639 5639 5640 5638 5640 5641 5641 5640 5640 5640 5639 5640 5641 5641 5642 5643 5644 5645 5646 5647 5647 5648 5648 5649 5649 5649 5650 5650 5650 5650 5650 5651 5651 5652
5644 5643 5641 5640 5639 5638 5636 5636 5634 5632 5631 5631 5632 5630 5632 5633 5633 5632 5631 5631 5631 5630 5631 5631 5632 5633 5634 5634 5635 5635 5636 5636 5636 5636 5637 5637 5638 5638 5638 5638 5638 5638 5638 5639
5638 5637 5636 5634 5633 5632 5630 5629 5628 5626 5624 5624 5623 5622 5625 5625 5624 5623 5622 5622 5622 5622 5622 5622 5622 5622 5623 5623 5624 5624 5624 5624 5624 5624 5624 5625 5625 5625 5625 5625 5625 5625 5625 5626
5631 5631 5629 5627 5626 5625 5623 5622 5621 5619 5617 5616 5616 5616 5617 5616 5615 5615 5614 5614 5613 5613 5613 5613 5612 5612 5612 5613 5613 5613 5613 5612 5612 5612 5612 5613 5613 5613 5613 5613 5612 5612 5612 5613
5625 5624 5623 5621 5620 5618 5618 5616 5615 5613 5611 5609 5609 5609 5610 5609 5608 5607 5607 5606 5605 5605 5604 5604 5603 5603 5603 5602 5602 5602 5601 5601 5600 5600 5600 5600 5600 5601 5601 5601 5601 5600 5600 5600
5618 5618 5617 5615 5614 5613 5612 5611 5608 5607 5605 5604 5603 5606 5604 5602 5601 5600 5599 5598 5597 5597 5596 5595 5594 5594 5593 5593 5592 5591 5590 5589 5589 5588 5588 5588 5588 5588 5588 5589 5589 5589 5589 5589
5612 5610 5609 5609 5607 5606 5605 5604 5603 5602 5600 5598 5596 5601 5597 5596 5594 5593 5592 5591 5589 5588 5587 5586 5585 5584 5583 5583 5582 5581 5580 5579 5578 5578 5577 5577 5577 5577 5577 5577 5577 5577 5578 5578
5606 5604 5603 5602 5603 5600 5598 5597 5596 5594 5593 5591 5590 5594 5591 5589 5587 5585 5584 5583 5581 5580 5579 5577 5576 5575 5574 5573 5572 5571 5570 5569 5568 5567 5567 5567 5567 5566 5566 5567 5567 5567 5567 5568
5599 5598 5598 5597 5594 5592 5592 5591 5589 5587 5586 5585 5585 5585 5584 5582 5580 5579 5577 5575 5574 5572 5571 5569 5568 5567 5566 5564 5563 5562 5561 5560 5559 5558 5558 5557 5557 5557 5556 5556 5557 5557 5557 5558
5592 5591 5590 5589 5588 5586 5585 5584 5582 5581 5580 5579 5579 5578 5577 5575 5573 5572 5570 5568 5566 5564 5563 5561 5559 5558 5557 5556 5554 5553 5552 5551 5550 5549 5549 5548 5547 5547 5547 5547 5547 5547 5547 5548
5586 5585 5583 5583 5581 5579 5578 5577 5575 5574 5573 5572 5571 5571 5570 5568 5566 5564 5562 5560 5558 5557 5555 5553 5551 5550 5548 5547 5546 5545 5544 5542 5541 5540 5540 5539 5538 5537 5537 5537 5537 5537 5538 5538
5579 5578 5576 5575 5574 5571 5571 5571 5569 5568 5566 5565 5563 5564 5562 5560 5558 5557 5555 5553 5551 5549 5547 5545 5544 5542 5541 5539 5538 5537 5535 5534 5533 5531 5530 5529 5528 5528 5527 5527 5527 5528 5529 5529
5573 5571 5569 5567 5567 5564 5567 5564 5562 5560 5559 5558 5556 5555 5554 5552 5551 5549 5547 5545 5543 5541 5540 5538 5536 5534 5533 5531 5530 5528 5527 5525 5524 5523 5522 5520 5519 5519 5518 5518 5518 5519 5520 5520
5565 5563 5561 5559 5557 5557 5559 5557 5555 5553 5552 5551 5549 5547 5546 5545 5543 5542 5539 5537 5535 5534 5532 5530 5528 5527 5525 5523 5522 5520 5519 5517 5516 5514 5513 5512 5511 5510 5510 5509 5510 5510 5511 5511
5557 5555 5554 5551 5549 5549 5553 5550 5547 5546 5545 5544 5541 5540 5538 5537 5536 5536 5533 5530 5528 5526 5525 5523 5521 5519 5517 5516 5514 5512 5511 5509 5508 5506 5505 5504 5503 5502 5501 5501 5501 5501 5502 5503
5549 5547 5545 5543 5541 5541 5544 5541 5539 5539 5539 5536 5533 5532 5531 5529 5528 5527 5525 5523 5521 5519 5517 5515 5513 5512 5510 5508 5506 5505 5503 5502 5500 5498 5497 5496 5495 5494 5494 5493 5493 5494 5494 5495
5540 5539 5537 5535 5533 5536 5535 5532 5531 5531 5529 5527 5525 5524 5523 5521 5520 5519 5517 5515 5513 5511 5509 5507 5506 5504 5502 5500 5498 5497 5495 5494 5492 5490 5489 5488 5488 5487 5487 5486 5486 5486 5487 5487
5532 5532 5529 5529 5529 5528 5526 5524 5523 5522 5520 5519 5517 5516 5515 5514 5513 5511 5510 5508 5506 5504 5502 5500 5498 5496 5495 5493 5491 5489 5487 5486 5484 5483 5482 5482 5481 5481 5480 5480 5480 5480 5480 5480
5524 5523 5521 5520 5520 5519 5517 5516 5515 5513 5512 5510 5509 5508 5507 5505 5504 5503 5502 5500 5498 5496 5494 5492 5491 5489 5488 5485 5484 5482 5480 5479 5478 5477 5476 5476 5475 5475 5474 5474 5474 5474 5474 5473
5516 5514 5512 5511 5511 5510 5509 5508 5506 5505 5503 5502 5501 5500 5498 5497 5497 5495 5494 5492 5491 5489 5487 5485 5484 5482 5481 5479 5477 5475 5474 5473 5472 5471 5470 5470 5469 5469 5468 5468 5468 5468 5467 5467
5507 5505 5504 5503 5503 5501 5501 5499 5498 5496 5496 5494 5493 5492 5491 5489 5489 5488 5486 5485 5484 5482 5480 5479 5477 5475 5474 5472 5471 5469 5468 5467 5466 5465 5465 5464 5464 5463 5463 5463 5462 5462 5462 5461